Location: Gull Harbor
(47.1000°N, 122.9000°W)
Time: 00:50:45
(UTC-07:00)

ISS - Visible Passes

Search period start: 23 September 2023 00:00
Search period end: 03 October 2023 00:00
Orbit: 414 x 422 km, 51.6° (Epoch: 23 September)

Date Brightness Start Highest point End Pass type
(mag) Time Alt. Az. Time Alt. Az. Time Alt. Az.
23 Sep -2.7 19:33:05 10° W 19:36:14 39° N 19:39:25 10° ENE visible
23 Sep -2.9 21:10:14 10° WNW 21:13:12 42° N 21:13:12 42° N visible
24 Sep -2.8 20:22:11 10° WNW 20:25:21 38° N 20:26:59 23° ENE visible
24 Sep -0.8 21:59:00 10° WNW 21:59:54 17° WNW 21:59:54 17° WNW visible
25 Sep -2.6 19:34:04 10° WNW 19:37:12 36° N 19:40:20 10° ENE visible
25 Sep -3.0 21:10:58 10° WNW 21:13:39 51° NW 21:13:39 51° NW visible
26 Sep -3.4 20:22:54 10° WNW 20:26:12 52° NNE 20:27:24 32° ENE visible
26 Sep -0.6 21:59:47 10° WNW 22:00:19 14° W 22:00:19 14° W visible
27 Sep -3.0 19:34:48 10° WNW 19:38:02 43° NNE 19:41:10 10° E visible
27 Sep -2.6 21:11:36 10° WNW 21:14:05 42° W 21:14:05 42° W visible
28 Sep -3.9 20:23:26 10° WNW 20:26:48 87° SSW 20:27:52 41° ESE visible
29 Sep -3.7 19:35:18 10° WNW 19:38:38 67° NNE 19:41:40 12° ESE visible
29 Sep -1.8 21:12:22 10° W 21:14:36 24° WSW 21:14:36 24° WSW visible
30 Sep -2.7 20:23:59 10° WNW 20:27:08 39° SW 20:28:28 26° SSE visible
01 Oct -3.3 19:35:41 10° WNW 19:38:59 61° SSW 19:42:16 10° SE visible
01 Oct -0.8 21:14:23 10° WSW 21:15:09 11° SW 21:15:19 11° SW visible
02 Oct -1.2 20:24:53 10° W 20:27:08 17° SW 20:29:20 10° S visible
